Weather History for Langdon, ND

Change the Weather History Date:

Wednesday, March 27, 2013

  Actual Average (KDVL) Record (KDVL)
Temperature  
Mean Temperature 8 °F -  
Max Temperature 24 °F 35 °F 59 °F (1963)
Min Temperature -7 °F 21 °F -8 °F (1964)
Degree Days  
Heating Degree Days 56    
Moisture  
Dew Point 5 °F    
Average Humidity 86    
Maximum Humidity 100    
Minimum Humidity 77    
Precipitation  
Precipitation 0.00 in - - ()
Sea Level Pressure  
Sea Level Pressure 30.24 in    
Wind  
Wind Speed 7 mph (SE)    
Max Wind Speed 13 mph    
Max Gust Speed -    
Visibility 6 miles    
Events Fog , Snow    
Averages and records for this station are not official NWS values.
T = Trace of Precipitation, MM = Missing Value Source: NWS Daily Summary

Daily Weather History Graph

Daily Weather History Graph

Search for Another Location

Airport:

Trip Planner

Search our weather history database for the weather conditions in past years. The results will help you decide how hot, cold, wet, or windy it might be!

Date:

Astronomy

Mar. 27, 2013 Rise Set
Actual Time 7:21 AM CDT 7:57 PM CDT
Civil Twilight 6:49 AM CDT 8:29 PM CDT
Nautical Twilight 6:11 AM CDT 9:06 PM CDT
Astronomical Twilight 5:32 AM CDT 9:46 PM CDT
Moon 8:50 PM CDT (3/27) 7:08 AM CDT (3/27)
Length of Visible Light 13h 39m
Length of Day
12h 36m
Full, 100% of the Moon is Illuminated
Mar 27
Full
Apr 2
Last Quarter
Apr 10
New
Apr 18
First Quarter
Apr 25
Full

Hourly Weather History & Observations

Time (CDT) Temp. Windchill Dew Point Humidity Pressure Visibility Wind Dir Wind Speed Gust Speed Precip Events Conditions
12:15 AM -2.2 °F -14.2 °F -5.8 °F 85% 30.24 in 1.0 mi South 5.8 mph - N/A   Clear
12:35 AM -4.0 °F -16.3 °F -9.4 °F 78% 30.25 in 1.2 mi South 5.8 mph - N/A   Clear
12:55 AM -5.8 °F -16.7 °F -9.4 °F 84% 30.25 in 0.2 mi South 4.6 mph - N/A Fog Light Freezing Fog
1:15 AM -5.8 °F -21.2 °F -11.2 °F 77% 30.24 in 1.0 mi South 8.1 mph - N/A   Haze
1:35 AM -5.8 °F -18.4 °F -9.4 °F 84% 30.24 in 8.0 mi SSE 5.8 mph - N/A   Clear
1:55 AM -5.8 °F -19.9 °F -9.4 °F 84% 30.24 in 5.0 mi South 6.9 mph - N/A   Clear
2:15 AM -4.0 °F -16.3 °F -9.4 °F 78% 30.24 in 0.2 mi South 5.8 mph - N/A Fog Light Freezing Fog
2:35 AM -5.8 °F -14.5 °F -9.4 °F 84% 30.24 in 0.5 mi South 3.5 mph - N/A Fog Light Freezing Fog
2:55 AM -7.6 °F -22.1 °F -11.2 °F 84% 30.24 in 1.2 mi South 6.9 mph - N/A   Haze
3:15 AM -5.8 °F -16.7 °F -11.2 °F 77% 30.24 in 0.2 mi South 4.6 mph - N/A   Haze
3:35 AM -7.6 °F - -11.2 °F 84% 30.24 in 0.5 mi Calm Calm - N/A Fog Light Freezing Fog
3:55 AM -7.6 °F -16.5 °F -11.2 °F 84% 30.23 in 0.2 mi SSE 3.5 mph - N/A   Haze
4:15 AM -5.8 °F -18.4 °F -11.2 °F 77% 30.23 in 0.2 mi South 5.8 mph - N/A   Haze
4:35 AM -7.6 °F -16.5 °F -11.2 °F 84% 30.23 in 0.2 mi SSE 3.5 mph - N/A   Haze
4:55 AM -5.8 °F -14.5 °F -11.2 °F 77% 30.23 in 0.2 mi SSE 3.5 mph - N/A   Haze
5:15 AM -7.6 °F - -11.2 °F 84% 30.23 in 0.2 mi Calm Calm - N/A Fog Light Freezing Fog
5:35 AM -4.0 °F -12.4 °F -9.4 °F 78% 30.23 in 0.2 mi SE 3.5 mph - N/A Fog Light Freezing Fog
5:55 AM -4.0 °F -14.6 °F -7.6 °F 85% 30.23 in 0.2 mi SSE 4.6 mph - N/A Fog Light Freezing Fog
6:15 AM -4.0 °F -12.4 °F -9.4 °F 78% 30.23 in 0.8 mi SE 3.5 mph - N/A   Haze
6:35 AM -5.8 °F -16.7 °F -9.4 °F 84% 30.23 in 0.8 mi SE 4.6 mph - N/A   Overcast
6:55 AM -5.8 °F -18.4 °F -11.2 °F 77% 30.23 in 0.2 mi SE 5.8 mph - N/A   Haze
7:15 AM -7.6 °F -22.1 °F -11.2 °F 84% 30.24 in 0.2 mi ESE 6.9 mph - N/A Fog Light Freezing Fog
7:35 AM -7.6 °F -23.4 °F -11.2 °F 84% 30.24 in 0.2 mi ESE 8.1 mph - N/A Fog Light Freezing Fog
7:55 AM -5.8 °F -16.7 °F -9.4 °F 84% 30.25 in 0.2 mi SE 4.6 mph - N/A Fog Light Freezing Fog
8:15 AM -4.0 °F - -7.6 °F 85% 30.25 in 0.2 mi Calm Calm - N/A Fog Light Freezing Fog
8:35 AM -0.4 °F -10.4 °F -4.0 °F 85% 30.25 in 0.2 mi ESE 4.6 mph - N/A Fog Light Freezing Fog
8:55 AM -0.4 °F -14.7 °F -4.0 °F 85% 30.25 in 0.2 mi SE 8.1 mph - N/A Fog Light Freezing Fog
9:15 AM -0.4 °F -12.0 °F -4.0 °F 85% 30.26 in 3.0 mi SE 5.8 mph - N/A   Clear
9:35 AM 1.4 °F -12.5 °F -0.4 °F 92% 30.26 in 10.0 mi SE 8.1 mph - N/A   Clear
9:55 AM 5.0 °F -9.1 °F 1.4 °F 85% 30.25 in 10.0 mi SE 9.2 mph - N/A Snow Light Snow
10:15 AM 6.8 °F -5.9 °F 5.0 °F 92% 30.25 in 10.0 mi SE 8.1 mph - N/A Snow Light Snow
10:35 AM 10.4 °F 0.8 °F 8.6 °F 92% 30.25 in 10.0 mi SE 5.8 mph - N/A Snow Light Snow
10:55 AM 14.0 °F 2.0 °F 10.4 °F 86% 30.25 in 10.0 mi SSE 9.2 mph - N/A Snow Light Snow
11:15 AM 15.8 °F 3.4 °F 14.0 °F 93% 30.26 in 10.0 mi SE 10.4 mph - N/A   Clear
11:35 AM 15.8 °F 5.1 °F 15.8 °F 100% 30.26 in 10.0 mi SE 8.1 mph - N/A   Clear
11:55 AM 17.6 °F 6.4 °F 15.8 °F 93% 30.26 in 10.0 mi SE 9.2 mph - N/A   Clear
12:15 PM 17.6 °F 6.4 °F 17.6 °F 100% 30.26 in 10.0 mi SE 9.2 mph - N/A   Clear
12:35 PM 19.4 °F 7.9 °F 17.6 °F 93% 30.26 in 10.0 mi SE 10.4 mph - N/A   Clear
12:55 PM 19.4 °F 7.9 °F 19.4 °F 100% 30.25 in 10.0 mi SE 10.4 mph - N/A   Clear
1:15 PM 19.4 °F 8.6 °F 19.4 °F 100% 30.26 in 10.0 mi SE 9.2 mph - N/A   Clear
1:35 PM 21.2 °F 10.1 °F 19.4 °F 93% 30.25 in 10.0 mi SSE 10.4 mph - N/A   Clear
1:55 PM 23.0 °F 13.1 °F 19.4 °F 86% 30.25 in 10.0 mi SE 9.2 mph - N/A   Clear
2:15 PM 23.0 °F 12.4 °F 19.4 °F 86% 30.25 in 10.0 mi SSE 10.4 mph - N/A   Clear
2:35 PM 23.0 °F 12.4 °F 19.4 °F 86% 30.25 in 10.0 mi SSE 10.4 mph - N/A   Clear
2:55 PM 24.8 °F 15.3 °F 19.4 °F 80% 30.25 in 10.0 mi SSE 9.2 mph - N/A   Clear
3:15 PM 24.8 °F 15.3 °F 19.4 °F 80% 30.24 in 10.0 mi SSE 9.2 mph - N/A   Clear
3:35 PM 24.8 °F 15.3 °F 19.4 °F 80% 30.24 in 10.0 mi SSE 9.2 mph - N/A   Clear
3:55 PM 24.8 °F 16.1 °F 19.4 °F 80% 30.24 in 10.0 mi SE 8.1 mph - N/A   Clear
4:15 PM 24.8 °F 16.1 °F 19.4 °F 80% 30.24 in 10.0 mi SE 8.1 mph - N/A   Clear
4:35 PM 24.8 °F 15.3 °F 19.4 °F 80% 30.24 in 10.0 mi SSE 9.2 mph - N/A   Clear
4:55 PM 24.8 °F 16.1 °F 21.2 °F 86% 30.24 in 10.0 mi SSE 8.1 mph - N/A   Clear
5:15 PM 24.8 °F 16.1 °F 19.4 °F 80% 30.24 in 10.0 mi SE 8.1 mph - N/A   Clear
5:35 PM 23.0 °F 14.7 °F 19.4 °F 86% 30.23 in 10.0 mi SE 6.9 mph - N/A   Clear
5:55 PM 23.0 °F 13.9 °F 19.4 °F 86% 30.23 in 10.0 mi SE 8.1 mph - N/A   Clear
6:15 PM 21.2 °F 11.7 °F 19.4 °F 93% 30.23 in 10.0 mi SE 8.1 mph - N/A   Clear
6:35 PM 19.4 °F 8.6 °F 17.6 °F 93% 30.23 in 10.0 mi SE 9.2 mph - N/A   Clear
6:55 PM 19.4 °F 9.5 °F 15.8 °F 86% 30.23 in 10.0 mi ESE 8.1 mph - N/A   Clear
7:15 PM 17.6 °F 6.4 °F 15.8 °F 93% 30.23 in 10.0 mi ESE 9.2 mph - N/A   Clear
7:35 PM 15.8 °F 4.2 °F 14.0 °F 93% 30.23 in 10.0 mi ESE 9.2 mph - N/A   Clear
7:55 PM 14.0 °F 2.9 °F 12.2 °F 93% 30.22 in 10.0 mi SE 8.1 mph - N/A   Clear
8:15 PM 14.0 °F 2.0 °F 10.4 °F 86% 30.22 in 10.0 mi ESE 9.2 mph - N/A   Clear
8:35 PM 15.8 °F 4.2 °F 12.2 °F 86% 30.22 in 10.0 mi SE 9.2 mph - N/A   Clear
8:55 PM 15.8 °F 2.7 °F 14.0 °F 93% 30.22 in 10.0 mi SE 11.5 mph - N/A   Clear
9:15 PM 14.0 °F 1.2 °F 12.2 °F 93% 30.22 in 10.0 mi SE 10.4 mph - N/A   Clear
9:35 PM 14.0 °F 0.5 °F 12.2 °F 93% 30.23 in 10.0 mi SE 11.5 mph - N/A   Clear
9:55 PM 14.0 °F 1.2 °F 10.4 °F 86% 30.22 in 10.0 mi SE 10.4 mph - N/A   Clear
10:15 PM 14.0 °F 1.2 °F 10.4 °F 86% 30.23 in 10.0 mi SE 10.4 mph - N/A   Clear
10:35 PM 12.2 °F -1.8 °F 10.4 °F 92% 30.23 in 10.0 mi SE 11.5 mph - N/A   Clear
10:55 PM 12.2 °F -1.0 °F 8.6 °F 85% 30.23 in 10.0 mi SE 10.4 mph - N/A   Clear
11:15 PM 12.2 °F -2.5 °F 10.4 °F 92% 30.23 in 10.0 mi SE 12.7 mph - N/A   Clear
11:35 PM 12.2 °F -1.8 °F 8.6 °F 85% 30.22 in 10.0 mi SE 11.5 mph - N/A   Clear
11:55 PM 10.4 °F -4.1 °F 8.6 °F 92% 30.22 in 10.0 mi SE 11.5 mph - N/A   Clear